TimeCST,TemperatureF,Dew PointF,Humidity,Sea Level PressureIn,VisibilityMPH,Wind Direction,Wind SpeedMPH,Gust SpeedMPH,PrecipitationIn,Events,Conditions,WindDirDegrees,DateUTC
12:15 AM,49.6,42.4,76,30.12,10.0,Calm,Calm,-,N/A,,Clear,0,2012-11-18 06:15:00
12:35 AM,49.1,42.8,79,30.12,10.0,Calm,Calm,-,N/A,,Clear,0,2012-11-18 06:35:00
12:55 AM,49.8,43.0,77,30.12,10.0,Calm,Calm,-,N/A,,Clear,0,2012-11-18 06:55:00
1:15 AM,50.5,43.5,77,30.12,10.0,North,3.5,-,N/A,,Clear,360,2012-11-18 07:15:00
1:55 AM,51.1,43.5,75,30.11,10.0,Calm,Calm,-,N/A,,Clear,0,2012-11-18 07:55:00
2:15 AM,51.4,43.5,74,30.11,10.0,Calm,Calm,-,N/A,,Clear,0,2012-11-18 08:15:00
2:35 AM,52.0,44.2,75,30.11,10.0,Calm,Calm,-,N/A,,Clear,0,2012-11-18 08:35:00
2:55 AM,50.9,43.7,76,30.10,10.0,Calm,Calm,-,N/A,,Clear,0,2012-11-18 08:55:00
3:15 AM,50.5,43.3,76,30.09,10.0,Calm,Calm,-,N/A,,Clear,0,2012-11-18 09:15:00
3:35 AM,51.1,43.7,76,30.09,10.0,Calm,Calm,-,N/A,,Clear,0,2012-11-18 09:35:00
3:55 AM,49.5,43.0,78,30.09,10.0,North,4.6,-,N/A,,Clear,350,2012-11-18 09:55:00
4:15 AM,48.6,42.4,79,30.09,10.0,Calm,Calm,-,N/A,,Clear,0,2012-11-18 10:15:00
4:35 AM,50.4,44.4,80,30.07,10.0,ENE,5.8,-,N/A,,Clear,60,2012-11-18 10:35:00
4:55 AM,50.5,44.6,80,30.09,10.0,East,3.5,-,N/A,,Clear,80,2012-11-18 10:55:00
5:15 AM,50.7,44.8,80,30.09,10.0,Calm,Calm,-,N/A,,Clear,0,2012-11-18 11:15:00
5:35 AM,50.9,44.6,79,30.09,10.0,Calm,Calm,-,N/A,,Clear,0,2012-11-18 11:35:00
5:55 AM,51.3,44.6,78,30.09,10.0,ENE,4.6,-,N/A,,Scattered Clouds,70,2012-11-18 11:55:00
6:15 AM,51.8,44.6,76,30.10,10.0,ENE,3.5,-,N/A,,Overcast,70,2012-11-18 12:15:00
6:35 AM,51.1,44.1,77,30.11,10.0,ESE,3.5,-,N/A,,Overcast,110,2012-11-18 12:35:00
6:55 AM,51.3,44.6,78,30.11,10.0,Calm,Calm,-,N/A,,Overcast,0,2012-11-18 12:55:00
7:15 AM,50.9,44.6,79,30.10,10.0,Calm,Calm,-,N/A,,Overcast,0,2012-11-18 13:15:00
7:35 AM,50.9,45.0,80,30.11,10.0,Calm,Calm,-,N/A,,Overcast,0,2012-11-18 13:35:00
7:55 AM,51.1,44.8,79,30.12,10.0,ESE,4.6,-,N/A,,Overcast,120,2012-11-18 13:55:00
8:15 AM,51.3,45.9,82,30.13,10.0,NNW,4.6,-,N/A,Rain,Light Rain,340,2012-11-18 14:15:00
8:35 AM,51.8,47.1,84,30.15,10.0,Calm,Calm,-,N/A,,Light Drizzle,0,2012-11-18 14:35:00
8:55 AM,51.8,47.3,85,30.15,10.0,ESE,4.6,-,N/A,Rain,Light Rain,120,2012-11-18 14:55:00
9:15 AM,52.5,47.7,84,30.13,10.0,East,3.5,-,N/A,,Overcast,80,2012-11-18 15:15:00
9:35 AM,53.4,47.3,80,30.15,10.0,Calm,Calm,-,N/A,,Mostly Cloudy,0,2012-11-18 15:35:00
9:55 AM,53.8,47.3,79,30.16,10.0,Calm,Calm,-,N/A,Rain,Light Rain,0,2012-11-18 15:55:00
10:15 AM,54.0,48.2,81,30.18,10.0,NNW,4.6,-,N/A,,Overcast,330,2012-11-18 16:15:00
10:35 AM,54.5,48.9,81,30.18,10.0,NNW,4.6,-,N/A,,Light Drizzle,330,2012-11-18 16:35:00
10:55 AM,55.4,49.1,79,30.18,10.0,Calm,Calm,-,N/A,,Mostly Cloudy,0,2012-11-18 16:55:00
11:15 AM,56.5,49.6,78,30.17,10.0,NE,3.5,-,N/A,,Scattered Clouds,50,2012-11-18 17:15:00
11:35 AM,57.9,50.0,75,30.17,10.0,ENE,4.6,-,N/A,,Scattered Clouds,70,2012-11-18 17:35:00
11:55 AM,59.2,50.9,74,30.16,10.0,East,3.5,-,N/A,,Scattered Clouds,80,2012-11-18 17:55:00
12:15 PM,60.1,50.7,71,30.16,10.0,East,4.6,-,N/A,,Scattered Clouds,80,2012-11-18 18:15:00
12:35 PM,61.2,51.6,71,30.15,10.0,East,6.9,-,N/A,,Scattered Clouds,80,2012-11-18 18:35:00
12:55 PM,62.4,52.2,69,30.13,10.0,East,6.9,-,N/A,,Scattered Clouds,80,2012-11-18 18:55:00
1:15 PM,63.0,51.8,67,30.12,10.0,East,5.8,-,N/A,,Scattered Clouds,90,2012-11-18 19:15:00
1:35 PM,64.8,52.3,64,30.12,10.0,East,4.6,-,N/A,,Clear,80,2012-11-18 19:35:00
1:55 PM,65.3,51.8,62,30.12,10.0,Calm,Calm,-,N/A,,Clear,0,2012-11-18 19:55:00
2:15 PM,65.3,51.8,62,30.12,10.0,Calm,Calm,-,N/A,,Mostly Cloudy,0,2012-11-18 20:15:00
2:35 PM,65.7,51.6,60,30.12,10.0,North,3.5,-,N/A,,Mostly Cloudy,350,2012-11-18 20:35:00
2:55 PM,66.0,51.4,59,30.12,10.0,Calm,Calm,-,N/A,,Mostly Cloudy,0,2012-11-18 20:55:00
3:15 PM,67.1,51.3,57,30.12,10.0,NNE,6.9,-,N/A,,Mostly Cloudy,30,2012-11-18 21:15:00
3:35 PM,68.0,51.1,55,30.12,10.0,NE,5.8,-,N/A,,Mostly Cloudy,40,2012-11-18 21:35:00
3:55 PM,67.3,51.1,56,30.12,10.0,ENE,4.6,-,N/A,,Scattered Clouds,60,2012-11-18 21:55:00
4:15 PM,67.6,50.9,55,30.13,10.0,East,4.6,-,N/A,,Clear,100,2012-11-18 22:15:00
4:55 PM,66.9,50.7,56,30.13,10.0,East,5.8,-,N/A,,Scattered Clouds,90,2012-11-18 22:55:00
5:35 PM,65.1,50.5,59,30.14,10.0,ESE,4.6,-,N/A,,Scattered Clouds,110,2012-11-18 23:35:00
5:55 PM,63.5,50.4,62,30.14,10.0,East,3.5,-,N/A,,Clear,100,2012-11-18 23:55:00
6:15 PM,62.2,50.0,64,30.15,10.0,ESE,4.6,-,N/A,,Clear,120,2012-11-19 00:15:00
6:35 PM,60.1,49.6,68,30.15,10.0,East,5.8,-,N/A,,Scattered Clouds,100,2012-11-19 00:35:00
6:55 PM,59.5,49.5,69,30.15,10.0,East,4.6,-,N/A,,Scattered Clouds,100,2012-11-19 00:55:00
7:15 PM,58.6,49.1,71,30.16,10.0,SE,3.5,-,N/A,,Clear,130,2012-11-19 01:15:00
7:35 PM,57.6,49.1,73,30.16,10.0,SE,4.6,-,N/A,,Clear,130,2012-11-19 01:35:00
7:55 PM,57.4,48.7,73,30.16,10.0,SE,4.6,-,N/A,,Clear,130,2012-11-19 01:55:00
8:15 PM,56.3,48.4,75,30.16,10.0,ESE,4.6,-,N/A,,Clear,120,2012-11-19 02:15:00
8:35 PM,56.3,48.4,75,30.16,10.0,SE,6.9,-,N/A,,Clear,140,2012-11-19 02:35:00
8:55 PM,56.5,48.7,75,30.17,10.0,SE,3.5,-,N/A,,Clear,140,2012-11-19 02:55:00
9:15 PM,55.6,48.4,77,30.17,10.0,SSE,5.8,-,N/A,,Clear,160,2012-11-19 03:15:00
9:35 PM,54.9,48.4,79,30.17,10.0,South,5.8,-,N/A,,Clear,170,2012-11-19 03:35:00
9:55 PM,54.1,48.0,80,30.17,10.0,SSE,3.5,-,N/A,,Clear,160,2012-11-19 03:55:00
10:35 PM,53.2,47.5,81,30.17,10.0,SSW,3.5,-,N/A,,Clear,210,2012-11-19 04:35:00
10:55 PM,51.8,46.6,82,30.16,10.0,Calm,Calm,-,N/A,,Clear,0,2012-11-19 04:55:00
11:15 PM,52.3,47.5,84,30.17,10.0,Calm,Calm,-,N/A,,Clear,0,2012-11-19 05:15:00
11:55 PM,50.0,45.7,85,30.17,10.0,Calm,Calm,-,N/A,,Clear,0,2012-11-19 05:55:00